Regional Weather Roundup
Issued by NWS Newport/Morehead, NC

Current Version | Previous Version | Graphics & Text | Print | Product List | Glossary Off
Versions: 1 2 3 4 5 6 7 8 9 10 11 12 13 14 15 16 17 18 19 20 21 22 23 24 25 26 27 28 29 30 31 32 33 34 35 36 37 38 39 40 41 42 43 44 45 46 47 48 49 50

000
ASUS42 KMHX 051324
RWRMHX
WEATHER ROUNDUP FOR EASTERN NORTH CAROLINA
NATIONAL WEATHER SERVICE NEWPORT/MOREHEAD CITY NC
900 AM EDT TUE MAY 05 2015

NOTE: "FAIR" INDICATES FEW OR NO CLOUDS BELOW 12,000 FEET
WITH NO SIGNIFICANT WEATHER AND/OR OBSTRUCTIONS TO VISIBILITY

NCZ015>017-031-032-045>047-102-103-051400-
NORTH COAST

CITY           SKY/WX    TMP DP  RH WIND       PRES   REMARKS
EDENTON        MOSUNNY   69  57  64 SW6       30.37S
ELIZABETH CITY SUNNY     70  55  59 SW12      30.36S
KITTY HAWK     MOSUNNY   69  56  64 SW6       30.36R
MANTEO         SUNNY     68  57  66 W5        30.38R

$$

NCZ045>047-081-094-103-104-051400-
CENTRAL COAST

CITY           SKY/WX    TMP DP  RH WIND       PRES   REMARKS
FRISCO         SUNNY     66  56  70 SW5       30.38R
SWANQUARTER      N/A     73 N/A N/A SW7       30.33S

$$

NCZ095-097-098-100-101-051400-
SOUTHERN COAST

CITY           SKY/WX    TMP DP  RH WIND       PRES   REMARKS
BEAUFORT       SUNNY     72  51  47 S5        30.37S
CEDAR ISLAND     N/A     77 N/A N/A SE6       30.41S
JACKSONVILLE   SUNNY     69  60  73 CALM      30.37R
PINEY ISLAND   SUNNY    N/A N/A N/A S7        30.37S
WILMINGTON     SUNNY     70  60  70 NE3       30.36S


$$

NCZ011>013-027>030-043-044-078>080-089-090>093-098-051400-
COASTAL PLAIN

CITY           SKY/WX    TMP DP  RH WIND       PRES   REMARKS
AHOSKIE        SUNNY     68  53  59 CALM      30.36S
CLINTON        MOSUNNY   70  57  63 CALM      30.39R
ELIZABETHTOWN  SUNNY     69  56  62 CALM      30.37S
GOLDSBORO      MOSUNNY   65  56  74 CALM      30.35S
GREENVILLE     SUNNY     68  54  60 SW5       30.37S
HAVELOCK       SUNNY     71  59  65 S5        30.39R
KENANSVILLE    SUNNY     69  54  58 CALM      30.39S
KINSTON        NOT AVBL
NEW BERN       SUNNY     70  60  70 S3        30.39R
RICHLANDS      SUNNY     73  55  53 S6        30.38S
ROCKY MOUNT    SUNNY     65  57  75 S5        30.37R
WASHINGTON     SUNNY     69  55  59 SW6       30.38S
WHITEVILLE     SUNNY     70  57  63 CALM      30.36S

$$

AMZ130-135-150-152-154-156-158-170-250-252-270-ANZ085-086-088-633-658-670-051400-
MARINE OBSERVATIONS

STATION/POSITION TIME  TEMP    WIND        PRES    WAVE   SWELL
                       AIR SEA DIR/SP/G            HT/PER HT/PER
                 (UTC) (F)     (DEG/KT/KT) (MB)    (FT/S) (FT/S)
CHESAPEAKE LIGHT 1300   63     220/ 14/ 15 1027.9
64 E VA BEACH    1250   61 60  220/ 10/ 12 1027.6    3/11   2/11
DUCK             1300   67 53  240/ 10/ 13 1027.3
2 E DUCK         1211      57                N/A     2/ 9   2/11
OREGON INLET     1300   67 67  210/  7/  8 1028.4
13E OREGON INLT  1300      59                N/A     2/11   2/11
HATTERAS CG      1300   71 65  200/  4/  6 1028.2
DIAMOND BUOY     1250   73 76  190/  8/ 12 1028.7    3/ 8   2/ 8
CAPE LOOKOUT     1300   69     140/  3/  3 1028.1
BEAUFORT LAB     1300   71 66  180/  4/  6 1027.6
27 SE WRIGHTSVLE 1300   69 71  130/ 10/ 12   N/A
5 SE WRIGHTSVLE  1208   70 68  130/  4/  8 1027.8
225 S CAPE HAT   1250   69 70  100/ 17/ 21 1027.0    5/ 9   3/ 9
41 SE CHARLESTON 1250   72 73   70/ 12/ 14 1025.9    3/ 7   3/ 7

$$



USA.gov is the U.S. government's official web portal to all federal, state and local government web resources and services.